Regional Weather Roundup
Issued by NWS

Home | Current Version | Previous Version | Graphics & Text | Print | Product List | Glossary Off
Versions: 1 2 3 4 5 6 7 8 9 10 11 12 13 14 15 16 17 18 19 20 21 22 23 24 25 26 27 28 29 30 31 32 33 34 35 36 37 38 39 40 41 42 43 44 45 46 47 48 49 50

000
ASUS43 KMKX 192221
RWRWI

WISCONSIN REGIONAL WEATHER ROUNDUP
NATIONAL WEATHER SERVICE MILWAUKEE/SULLIVAN WI
400 PM CST THU JAN 19 2017

NOTE: "FAIR" INDICATES FEW OR NO CLOUDS BELOW 12,000 FEET WITH NO
SIGNIFICANT WEATHER AND/OR OBSTRUCTIONS TO VISIBILITY.

WIZ001-002-006>008-014>016-023>028-192300-
NORTHWEST WISCONSIN

CITY           SKY/WX    TMP DP  RH WIND       PRES   REMARKS
SUPERIOR ARPT  CLEAR     38  32  80 E6        29.74R WCI  33
ASHLAND        CLEAR     45  35  68 SW8       29.75S
HAYWARD        CLEAR     41  33  73 E3        29.75F
SIREN          CLEAR     44  34  66 S8        29.75R
CUMBERLAND     CLEAR     36  32  87 E3        29.76S
RICE LAKE      CLEAR     37  33  85 SE7       29.78S WCI  31
CHETEK         NOT AVBL
LADYSMITH      PTCLDY    40  33  76 CALM      29.79F
EAU CLAIRE     CLOUDY    39  32  76 S3        29.79R
MENOMONIE        N/A    N/A N/A N/A MISG        N/A
NEW RICHMOND   CLOUDY    36  31  82 SE5       29.77S WCI  32
OSCEOLA        MOCLDY    38  32  81 S7        29.79R WCI  32
$$

WIZ003>005-009-010-017-018-192300-
NORTH CENTRAL WISCONSIN

CITY           SKY/WX    TMP DP  RH WIND       PRES   REMARKS
MANITOWISH WTR CLEAR     42  34  72 S8        29.78R
ARBOR VITAE    CLEAR     42  34  73 S6        29.79S
WOODRUFF       CLEAR     42  34  73 S6        29.79S
RHINELANDER    CLEAR     39  33  79 CALM      29.80F
EAGLE RIVER    CLEAR     47  32  57 SW5       29.79S
LAND O LAKES   CLEAR     48  36  62 SW5       29.80R
PHILLIPS       CLEAR     42  32  69 SE5       29.77F
TOMAHAWK       CLEAR     35  31  87 CALM      29.81F
MEDFORD        FOG       32  31  99 SE5       29.81R VSB 1/2 WCI  27
MERRILL        CLOUDY    35  33  95 SE6         N/A  FOG     WCI  29
$$

WIZ029-030-035-036-043>047-192300-
CENTRAL WISCONSIN

CITY           SKY/WX    TMP DP  RH WIND       PRES   REMARKS
WAUSAU         CLOUDY    36  32  85 SE8       29.82S WCI  30
MOSINEE        MOCLDY    34  34 100 SE3       29.84S FOG
MARSHFIELD     CLOUDY    34  32  92 SE6       29.81F FOG     WCI  29
STEVENS POINT  CLOUDY    32  32 100 E3        29.85S FOG
WAUPACA        CLOUDY    35  32  90 CALM      29.87F FOG
WAUTOMA        CLOUDY    34  31  88 S7        29.88S WCI  28
WISC RAPIDS    CLOUDY    37  33  85 SE5       29.85R WCI  33
CAMP DOUGLAS   MOCLDY    37  32  81 SE5       29.83F WCI  34
$$

WIZ011>013-019>022-031-037>040-048>050-192300-
NORTHEAST WISCONSIN

CITY           SKY/WX    TMP DP  RH WIND       PRES   REMARKS
ANTIGO         CLOUDY    32  32 100 SE7       29.84R FOG     WCI  26
SHAWANO        CLOUDY    34  32  91 CALM      29.87F FOG
OCONTO         NOT AVBL
STURGEON BAY   CLOUDY    33  32  96 S6        29.90R FOG     WCI  28
GREEN BAY      FOG       34  34 100 SW3       29.88S VSB 1/2
MANITOWOC      FOG       34  32  93 MISG      29.90S VSB 1
APPLETON       FOG       32  32 100 SW5       29.86S VSB 3/4 WCI  27
CLINTONVILLE   FOG       32  32 100 S7        29.88S VSB 1   WCI  26
OSHKOSH        CLOUDY    33  31  92 S5        29.88S FOG     WCI  29
$$

WIZ032>034-041-042-053>061-192300-
SOUTHWEST WISCONSIN

CITY           SKY/WX    TMP DP  RH WIND       PRES   REMARKS
LA CROSSE      CLOUDY    39  33  79 CALM      29.81F
SPARTA         CLOUDY    38  33  83 E5        29.83F WCI  34
VIROQUA        CLOUDY    35  34  96 SE8       29.81R WCI  29
BOSCOBEL       CLOUDY    39  34  82 CALM      29.83S
PRAIRIE DU CHI RAIN      36  34  92 CALM      29.82S
PLATTEVILLE    CLOUDY    36  36 100 E13       29.82S WCI  27
$$

WIZ056-057-062-063-064-067-068-192300-
SOUTH CENTRAL WISCONSIN

CITY           SKY/WX    TMP DP  RH WIND       PRES   REMARKS
REEDSBURG      NOT AVBL
BARABOO/DELLS  CLOUDY    36  33  90 E5        29.85R WCI  32
LONE ROCK      CLOUDY    37  34  89 E8        29.85S FOG     WCI  31
MINERAL POINT  CLOUDY    36  36 100 E8        29.82S FOG     WCI  29
MADISON        CLOUDY    36  34  92 SE5       29.86F FOG     WCI  32
MIDDLETON      CLOUDY    38  38 100 S7        29.86R WCI  32
WATERTOWN      CLOUDY    37  37  99 SE3       29.86F FOG
MONROE         FOG       34  34 100 E5        29.83F VSB<1/4 WCI  30
JANESVILLE     CLOUDY    37  37 100 VRB5      29.85F FOG     WCI  34
$$

WIZ051-052-058>065-066-070>072-192300-
SOUTHEAST WISCONSIN

CITY           SKY/WX    TMP DP  RH WIND       PRES   REMARKS
MILWAUKEE      CLOUDY    37  34  89 CALM      29.89F FOG
WAUKESHA       MOCLDY    34  34 100 SE3       29.89F FOG
MILWAUKEE/TIMM PTCLDY    37  32  81 SE3       29.90R HAZE
RACINE         FOG       35  34  96 SE5       29.90F VSB<1/4 WCI  31
KENOSHA        FOG       36  34  92 SE7       29.88F VSB 3/4 WCI  30
FOND DU LAC    CLOUDY    35  32  88 S5        29.88R FOG     WCI  31
SHEBOYGAN      FOG       32  32 100 S3        29.89R VSB 1/2
WEST BEND      CLOUDY    34  34 100 CALM      29.88S FOG
JUNEAU         FOG       34  33  99 E5        29.87F VSB 1/2 WCI  30
$$

LSZ147-162-192300-
LAKE SUPERIOR

STATION/POSITION TIME  TEMP    WIND        PRES    WAVE
                       AIR SEA DIR/SP/G            HT/PER
                 (UTC) (F)     (DEG/KT/KT) (MB)    (FT/S)
DEVILS ISLAND    2200   34      70/  7/  7 1008.1R
PORT WING        2140   37      40/ 12/ 13 1007.1S
SAXON HARBOR     2140          200/  8/ 12 1007.1R
$$

LMZ867-665-643>646-192300-
LAKE MICHIGAN

STATION/POSITION TIME  TEMP    WIND        PRES    WAVE
                       AIR SEA DIR/SP/G            HT/PER
                 (UTC) (F)     (DEG/KT/KT) (MB)    (FT/S)
NORTHPORT PIER   2140   34     180/  2/  5 1012.5R
SISTER BAY       2135   33     200/  9/ 11   N/A
ALGOMA LAKESHORE 2054          230/ 14/ 17   N/A
KEWAUNEE LAKESHO 2154   33     200/  8/ 12 1011.9R
SHEBOYGAN LAKESH 2200   33     190/ 13/ 14 1013.1R
PORT WASHINGTON  2130   33     170/  7/  8 1013.9R
MILWAUKEE LAKESH 2200   34     130/  7/  8   N/A
KENOSHA   LAKESH 2200   34        CALM     1012.5
$$

TC  - TEMPERATURE IN CELSIUS
VSB - VISIBILITY IN STATUTE MILES
WCI - WIND CHILL INDEX
HX  - HEAT INDEX




USA.gov is the U.S. government's official web portal to all federal, state and local government web resources and services.